Location: Amherst
(42.5000°N, 72.5000°W)
Time: 07:48:17
(UTC-04:00)

ISS - Pass Details

Date: 20 May 2018
Orbit: 402 x 407 km, 51.6° (Epoch: 26 May)

Event Time Altitude Azimuth Distance (km) Brightness Sun altitude
Exits shadow 01:48:50 - 303° (WNW) 2,129 0.0 -25.9°
Reaches altitude 10° 01:50:56 10° 322° (NW) 1,458 -0.6 -25.8°
Maximum altitude 01:53:08 17° 5° (N) 1,123 -0.8 -25.7°
Drops below altitude 10° 01:55:20 10° 47° (NE) 1,457 -0.2 -25.5°
Sets 01:57:57 0° 69° (ENE) 2,316 0.6 -25.4°
